Regional Weather Roundup
Issued by NWS Little Rock, AR

Home | Current Version | Previous Version | Graphics & Text | Print | Product List | Glossary Off
Versions: 1 2 3 4 5 6 7 8 9 10 11 12 13 14 15 16 17 18 19 20 21 22 23 24 25 26 27

000
ASUS44 KLZK 251305
RWRLZK

WEATHER ROUNDUP FOR ARKANSAS
NATIONAL WEATHER SERVICE LITTLE ROCK AR
800 AM CDT WED MAY 25 2016

NOTE: "FAIR" INDICATES FEW OR NO CLOUDS BELOW 12,000 FEET WITH NO
SIGNIFICANT WEATHER AND/OR OBSTRUCTIONS TO VISIBILITY.

ARZ001-003-010-029-251400-
NORTHWEST ARKANSAS

CITY           SKY/WX    TMP DP  RH WIND       PRES   REMARKS
FAYETTEVILLE   LGT RAIN  62  62 100 N8        30.01S
FORT SMITH     PTSUNNY   69  64  84 E7        29.99F
HARRISON       CLOUDY    64  61  90 NW3       30.01R
BENTONVILLE    CLOUDY    64  59  82 NE9G17    30.05R
ROGERS         CLOUDY    63  62  97 N8        30.05R
SILOAM SPGS    CLOUDY    63  55  77 NE12G17   30.01R
HIGHFILL       RAIN      64  63  96 N14       30.05R FOG
SPRINGDALE     RAIN      64  63  94 E6        30.05R FOG
$$

ARZ004-005-016-251400-
NORTH CENTRAL ARKANSAS

CITY           SKY/WX    TMP DP  RH WIND       PRES   REMARKS
BATESVILLE     CLOUDY    66  63  88 SE8       30.07S
FLIPPIN        CLOUDY   N/A N/A N/A CALM      29.99R
MTN HOME       CLOUDY    62  61  96 CALM      30.00F
$$

ARZ040-041-251400-
WEST CENTRAL ARKANSAS

CITY           SKY/WX    TMP DP  RH WIND       PRES   REMARKS
MENA           CLOUDY    68  68 100 CALM      30.05S
MOUNT IDA      CLOUDY    67  64  90 CALM      30.02F
$$

ARZ009-017-025-026-028-251400-
NORTHEAST ARKANSAS

CITY           SKY/WX    TMP DP  RH WIND       PRES   REMARKS
CORNING          N/A     64  64 100 SE6       30.06F FOG
JONESBORO      CLOUDY    68  65  90 S7        30.08R
NEWPORT        PTSUNNY   68  68 100 S5        30.08S
WALNUT RIDGE   CLOUDY    64  63  94 S6        30.05F
BLYTHEVILLE    CLOUDY    70  65  84 S7        30.08F
$$

ARZ022-023-033-042-044-251400-
CENTRAL ARKANSAS

CITY           SKY/WX    TMP DP  RH WIND       PRES   REMARKS
LITTLE ROCK    CLOUDY    70  63  78 S7        30.09R
N LITTLE ROCK    N/A     67  64  91 CALM      30.10R
JACKSONVILLE   CLOUDY    69  66  90 S2        30.08R
SEARCY         CLOUDY    67  66  97 CALM      30.10R
HOT SPRINGS    CLOUDY    66  64  93 E5        30.08F
RUSSELLVILLE   RAIN      66  65  96 W9        30.07R FOG
CLINTON        LGT RAIN  64  64 100 CALM      30.09R
$$

ARZ036-251400-
EAST ARKANSAS

CITY           SKY/WX    TMP DP  RH WIND       PRES   REMARKS
WEST MEMPHIS   MOSUNNY   69  65  86 S9        30.08F
$$

ARZ050-053-066-070-073-251400-
SOUTHWEST ARKANSAS

CITY           SKY/WX    TMP DP  RH WIND       PRES   REMARKS
ARKADELPHIA    CLOUDY    70  70 100 N7        30.08R
CAMDEN         CLOUDY    73  68  83 SE5       30.07S
TEXARKANA      CLOUDY    75  72  90 S6        30.06R
EL DORADO      PTSUNNY   75  72  90 SE6       30.07R
DE QUEEN       CLOUDY    76  72  87 SE6       30.02R
$$

ARZ056-057-069-251400-
SOUTHEAST ARKANSAS

CITY           SKY/WX    TMP DP  RH WIND       PRES   REMARKS
PINE BLUFF     CLOUDY    72  66  81 S8        30.09R
STUTTGART      PTSUNNY   72  63  73 S8        30.10R
MONTICELLO     CLOUDY    71  67  87 S3        30.09F

$$






USA.gov is the U.S. government's official web portal to all federal, state and local government web resources and services.